Weather History for Salina, KS

Change the Weather History Date:

Sunday, September 16, 2012

  Actual Average Record
Temperature  
Mean Temperature 69 °F 70 °F  
Max Temperature 79 °F 82 °F 103 °F (1931)
Min Temperature 59 °F 58 °F 36 °F (1903)
Degree Days  
Heating Degree Days 0 1  
Month to date heating degree days 16 9  
Since 1 July heating degree days 16 10  
Cooling Degree Days 4 6  
Month to date cooling degree days 136 142  
Year to date cooling degree days 2014 1549  
Growing Degree Days 19 (Base 50)    
Moisture  
Dew Point 58 °F    
Average Humidity 69    
Maximum Humidity 93    
Minimum Humidity 45    
Precipitation  
Precipitation 0.00 in 0.08 in 0.80 in (2006)
Month to date precipitation 0.85 1.47  
Year to date precipitation 15.18 25.81  
Sea Level Pressure  
Sea Level Pressure 30.01 in    
Wind  
Wind Speed 5 mph (South)    
Max Wind Speed 13 mph    
Max Gust Speed 16 mph    
Visibility 10 miles    
Events      
T = Trace of Precipitation, MM = Missing Value Source: NWS Daily Summary

Daily Weather History Graph

Daily Weather History Graph

Search for Another Location

Airport:

Trip Planner

Search our weather history database for the weather conditions in past years. The results will help you decide how hot, cold, wet, or windy it might be!

Date:

Astronomy

Sep. 16, 2012 Rise Set
Actual Time 7:13 AM CDT 7:36 PM CDT
Civil Twilight 6:46 AM CDT 8:03 PM CDT
Nautical Twilight 6:15 AM CDT 8:34 PM CDT
Astronomical Twilight 5:43 AM CDT 9:06 PM CDT
Moon 7:53 AM CDT 7:43 PM CDT
Length of Visible Light 13h 16m
Length of Day
12h 23m
New Moon, 0% of the Moon is Illuminated
Sep 16
New Moon
Sep 22
First Quarter
Sep 29
Full
Oct 8
Last Quarter
Oct 15
New

Hourly Weather History & Observations

Time (CDT) Temp. Dew Point Humidity Pressure Visibility Wind Dir Wind Speed Gust Speed Precip Events Conditions
12:46 AM 62.6 °F 57.2 °F 82% 30.11 in 10.0 mi South 3.5 mph - N/A   Scattered Clouds
12:53 AM 62.1 °F 59.0 °F 90% 30.09 in 10.0 mi Calm Calm - N/A   Partly Cloudy
1:53 AM 60.1 °F 57.0 °F 90% 30.09 in 10.0 mi SSE 4.6 mph - N/A   Clear
2:24 AM 60.8 °F 57.2 °F 88% 30.10 in 10.0 mi Calm Calm - N/A   Mostly Cloudy
2:53 AM 62.1 °F 59.0 °F 90% 30.07 in 10.0 mi SSW 4.6 mph - N/A   Overcast
3:34 AM 62.6 °F 59.0 °F 88% 30.08 in 10.0 mi Calm Calm - N/A   Overcast
3:53 AM 63.0 °F 60.1 °F 90% 30.06 in 10.0 mi SSW 4.6 mph - N/A   Overcast
4:53 AM 63.0 °F 59.0 °F 87% 30.06 in 10.0 mi WSW 3.5 mph - N/A   Overcast
5:53 AM 63.0 °F 59.0 °F 87% 30.05 in 10.0 mi Calm Calm - N/A   Overcast
6:53 AM 64.4 °F 59.0 °F 83% 30.07 in 10.0 mi Calm Calm - N/A   Overcast
7:53 AM 64.0 °F 59.0 °F 84% 30.06 in 10.0 mi Calm Calm - N/A   Overcast
8:53 AM 64.9 °F 59.0 °F 81% 30.06 in 10.0 mi South 3.5 mph - N/A   Overcast
9:53 AM 66.0 °F 59.0 °F 78% 30.07 in 10.0 mi South 3.5 mph - N/A   Overcast
10:53 AM 68.0 °F 59.0 °F 73% 30.06 in 10.0 mi SSE 4.6 mph - N/A   Overcast
11:53 AM 71.1 °F 60.1 °F 68% 30.05 in 10.0 mi Calm Calm - N/A   Mostly Cloudy
12:30 PM 73.4 °F 60.8 °F 65% 30.05 in 10.0 mi South 5.8 mph - N/A   Scattered Clouds
12:53 PM 75.0 °F 59.0 °F 57% 30.02 in 10.0 mi South 9.2 mph - N/A   Scattered Clouds
1:53 PM 75.0 °F 57.9 °F 55% 30.00 in 10.0 mi South 4.6 mph - N/A   Mostly Cloudy
2:53 PM 78.1 °F 57.9 °F 50% 29.97 in 10.0 mi SSE 9.2 mph 16.1 mph N/A   Mostly Cloudy
3:53 PM 77.0 °F 57.0 °F 50% 29.95 in 10.0 mi South 6.9 mph - N/A   Scattered Clouds
4:53 PM 78.1 °F 55.0 °F 45% 29.93 in 10.0 mi SSE 4.6 mph - N/A   Partly Cloudy
5:53 PM 78.1 °F 55.0 °F 45% 29.91 in 10.0 mi ESE 8.1 mph - N/A   Clear
6:53 PM 73.9 °F 55.9 °F 53% 29.91 in 10.0 mi SSE 5.8 mph - N/A   Clear
7:53 PM 69.1 °F 55.9 °F 63% 29.91 in 10.0 mi SE 5.8 mph - N/A   Clear
8:53 PM 68.0 °F 57.0 °F 68% 29.92 in 10.0 mi SE 9.2 mph - N/A   Clear
9:53 PM 64.9 °F 57.0 °F 75% 29.92 in 10.0 mi South 9.2 mph - N/A   Clear
10:53 PM 64.9 °F 57.9 °F 78% 29.92 in 10.0 mi South 6.9 mph - N/A   Clear
11:53 PM 63.0 °F 57.9 °F 84% 29.92 in 10.0 mi South 5.8 mph - N/A   Clear